Regional Weather Roundup
Issued by NWS

Home | Current Version | Previous Version | Text Only | Print | Product List | Glossary On
Versions: 1 2 3 4 5 6 7 8 9 10 11 12 13 14 15 16 17 18 19 20 21 22 23 24 25 26 27 28
000
ASUS42 KFFC 051803
RWRGA
WEATHER ROUNDUP FOR GEORGIA
NATIONAL WEATHER SERVICE PEACHTREE CITY GA
200 PM EDT THU MAY 05 2016

NOTE: "FAIR" INDICATES FEW OR NO CLOUDS BELOW 12,000 FEET WITH NO
SIGNIFICANT WEATHER AND/OR OBSTRUCTIONS TO VISIBILITY.

* = USE WITH CAUTION. THE STATIONS MARKED WITH AN ASTERISK MAY NOT
REPORT WEATHER SUCH AS PRECIPITATION, FOG, OR THUNDER AND ARE NOT
QUALITY CONTROLLED BY NWS.

THE REMARK "TC" DENOTES TEMPERATURE READING IN DEGREES CELSIUS.

GAZ001>058-051900-
NORTH GEORGIA

CITY           SKY/WX    TMP DP  RH WIND       PRES   REMARKS
ATLANTA        MOSUNNY   64  36  35 NW24G33   29.78F
6HR MIN TEMP:  51; 6HR MAX TEMP:  65;

ATHENS         CLOUDY    61  38  42 NW14G29   29.74S
6HR MIN TEMP:  52; 6HR MAX TEMP:  64;

CHAMBLEE       CLOUDY    59  39  47 W15G32    29.77F
6HR MIN TEMP:  50; 6HR MAX TEMP:  63;

PEACHTREE CITY MOSUNNY   65  37  35 NW20G26   29.79F
6HR MIN TEMP:  50; 6HR MAX TEMP:  65;

ROME           PTSUNNY   64  39  39 W8G22     29.77F
6HR MIN TEMP:  50; 6HR MAX TEMP:  64;

WEST ATLANTA   PTSUNNY   63  39  41 NW10G26   29.78F
6HR MIN TEMP:  50; 6HR MAX TEMP:  63;

GAINESVILLE    MOSUNNY   60  37  42 NW15G22   29.76F
6HR MIN TEMP:  49; 6HR MAX TEMP:  60; 6HR PCP: TRACE;

CARTERSVILLE   CLOUDY    60  38  43 VRB5      29.79F
6HR MIN TEMP:  49; 6HR MAX TEMP:  64;



CITY           SKY/WX    TMP DP  RH WIND       PRES   REMARKS
DALTON*        CLOUDY    59  43  55 W7        29.77F
LAWRENCEVILLE* PTSUNNY   59  37  44 NW17G28   29.77F
MARIETTA       PTSUNNY   60  42  50 W13       29.77F
KENNESAW*      PTSUNNY   61  36  39 NW16      29.78F
CANTON*        LGT RAIN  57  32  38 W17G25    29.79S
BLAIRSVILLE*   RAIN     N/A N/A N/A MISG      29.76F
$$

GAZ059>098-102>109-051900-
CENTRAL GEORGIA

CITY           SKY/WX    TMP DP  RH WIND       PRES   REMARKS
AUGUSTA-BUSH   MOSUNNY   69  39  33 NW15G28   29.67F
6HR MIN TEMP:  56; 6HR MAX TEMP:  69;

AUGUSTA-DANIEL PTSUNNY   66  38  35 NW13G26   29.68F
6HR MIN TEMP:  55; 6HR MAX TEMP:  68;

COLUMBUS       PTSUNNY   68  36  30 NW18G26   29.82F
6HR MIN TEMP:  54; 6HR MAX TEMP:  68;

MACON          PTSUNNY   67  38  34 NW17G31   29.77F
6HR MIN TEMP:  54; 6HR MAX TEMP:  68;

ROBINS AFB     MOSUNNY   67  39  35 NW16G29   29.77S


CITY           SKY/WX    TMP DP  RH WIND       PRES   REMARKS
LAGRANGE*      PTSUNNY   67  44  44 NW18      29.82F
SYLVANIA*      PTSUNNY   70  43  38 NW20G29   29.68F
MILLEDGEVILLE* PTSUNNY   66  36  32 NW13G22   29.76S
$$

GAZ099>101-110>166-051900-
SOUTH GEORGIA

CITY           SKY/WX    TMP DP  RH WIND       PRES   REMARKS
SAVANNAH       PTSUNNY   71  40  32 W15G28    29.67F
6HR MIN TEMP:  58; 6HR MAX TEMP:  73;

VALDOSTA       MOSUNNY   72  38  29 NW14G24   29.77F
6HR MIN TEMP:  59; 6HR MAX TEMP:  73;

ALMA           SUNNY     70  38  31 W15G25    29.74F
6HR MIN TEMP:  59; 6HR MAX TEMP:  70;

ST SIMONS      SUNNY     72  39  30 W20G33    29.69F
6HR MIN TEMP:  60; 6HR MAX TEMP:  73;

FT STEWART     MOSUNNY   71  41  33 W18G28    29.67F
ALBANY         MOSUNNY   71  35  26 NW18      29.81F
HUNTER AFB     MOSUNNY   72  43  35 NW15G33   29.64F
MOODY AFB      MOSUNNY   73  38  27 W18G30    29.76F
BRUNSWICK      MOSUNNY   79  36  21 W23G33    29.71S


CITY           SKY/WX    TMP DP  RH WIND       PRES   REMARKS
BAINBRIDGE*    SUNNY     72  39  30 NW20G28   29.83F
MOULTRIE*        N/A     70  36  28 NW15G23   29.80F
VIDALIA*       PTSUNNY   68  39  34 NW12G24   29.73F
WAYCROSS*      SUNNY     70  39  32 NW15G29   29.74F
DOUGLAS*       SUNNY     72  34  25 NW13G20   29.77F
$$




USA.gov is the U.S. government's official web portal to all federal, state and local government web resources and services.